[[{"header":{"parameterUnit":"m.s-1","parameterCategory":1,"la1":30.2991,"la2":30.254,"lo1":-89.0895,"lo2":-89.0444,"dy":0.0017,"dx":0.0017,"nx":28,"ny":28,"refTime":"2024-05-27T09:00:00:Z","depth":0,"parameterNumber":2,"parameterNumberName":"U-component_of_WINDS"},"data":[0,0,0,0,0,0,0,0,0,0,0,0,0,0,0,0,0,0,0,0,0,0,0,0,0,0,0,0,0,0,0,0,0,0,0,0,0,0,0,0,0,0,0,0,0,0,0,0,0,0,0,0,0,0,0,0,0,0,1.8728,1.8728,0,1.8701,1.8701,1.8701,1.8654,1.8653,1.8652,1.8652,1.8625,1.8625,1.8625,0,0,0,0,0,0,0,0,0,0,0,0,0,1.8737,1.8737,1.8728,1.8728,1.8727,1.8702,1.8701,1.8701,1.8654,1.8653,1.8652,1.8651,1.8625,1.8625,1.8625,0,0,0,0,0,0,0,0,0,0,0,0,0,1.8724,1.8737,1.8728,1.8701,1.8698,1.8702,1.8701,1.8701,1.8655,1.8653,1.8652,1.8651,1.8625,1.8625,1.8625,1.8653,0,0,1.8625,1.8625,0,0,0,0,0,0,0,0,1.8725,1.8724,1.8705,1.8703,1.87,1.868,1.8694,1.8685,1.8655,1.8671,1.8652,1.865,1.8644,1.8643,1.8641,1.8651,1.865,1.8625,1.8626,1.8626,1.8626,0,0,0,0,0,0,0,1.8726,1.8725,1.8717,1.8705,1.8702,1.869,1.8686,1.8692,1.8665,1.867,1.8666,1.8664,1.8642,1.864,1.864,1.865,1.8625,1.8626,1.8626,1.8626,1.8679,1.868,0,0,0,0,0,0,1.8731,1.8726,1.8718,1.8717,1.8709,1.8691,1.8687,1.8688,1.8665,1.8661,1.8665,1.8662,1.8641,1.8639,1.8638,1.8667,1.8626,1.8626,1.8626,1.8677,1.8679,1.868,0,0,0,0,0,0,1.8731,1.8731,1.8719,1.872,1.8718,1.8692,1.8693,1.8688,1.8686,1.8662,1.8656,1.8668,1.864,1.8638,1.8649,1.8665,1.8626,1.8626,1.8676,1.8678,1.868,1.8726,0,0,0,0,0,0,1.8732,1.8731,1.8742,1.8721,1.8718,1.8731,1.8694,1.8688,1.8686,1.8682,1.8663,1.8659,1.8639,1.8649,1.8649,1.8665,1.8626,1.8674,1.8677,1.8679,1.8723,1.8729,1.8735,0,0,0,0,0,1.8732,1.8756,1.8742,1.8742,1.8731,1.8732,1.873,1.8706,1.8688,1.8698,1.8682,1.8659,1.8664,1.865,1.865,1.8666,1.8673,1.8676,1.8679,1.872,1.8728,1.8735,0,0,0,0,0,0,1.878,1.8753,1.8737,1.8756,1.8746,1.8724,1.8736,1.8716,1.8712,1.8708,1.8678,1.8674,1.8688,1.8679,1.8664,1.8691,1.8665,1.8668,1.8696,1.8703,1.8709,1.8711,1.8626,0,0,0,0,0,1.8793,1.8796,1.8772,1.8791,1.8787,1.8762,1.8762,1.8744,1.8733,1.8729,1.8714,1.8704,1.8703,1.8703,1.8701,1.8722,1.8716,1.8733,1.8739,1.8744,1.8746,1.8754,1.8761,1.869,1.869,1.869,0,0,1.8819,1.8805,1.8809,1.88,1.8791,1.8794,1.8759,1.8765,1.8766,1.873,1.8738,1.8727,1.8714,1.8729,1.8735,1.8721,1.8764,1.8747,1.8752,1.8751,1.8758,1.8764,1.877,1.8692,1.8692,1.8692,0,0,1.8868,1.8859,1.8872,1.8863,1.8849,1.8832,1.8835,1.8815,1.8806,1.8814,1.8786,1.8787,1.8787,1.8778,1.8773,1.8817,1.8796,1.8818,1.8849,1.8856,1.8862,1.8867,1.888,1.8886,1.8821,1.8821,1.8821,0,1.8903,1.8907,1.8881,1.8887,1.8883,1.885,1.8862,1.8855,1.8841,1.8839,1.8824,1.8821,1.881,1.8821,1.8832,1.883,1.8831,1.8819,1.8863,1.8868,1.8872,1.8884,1.889,1.8823,1.8823,1.8823,1.8823,0,1.8948,1.8952,1.8964,1.895,1.8948,1.8957,1.8932,1.8933,1.8915,1.89,1.8907,1.8893,1.8886,1.8888,1.8871,1.8896,1.8888,1.8869,1.8842,1.8881,1.8893,1.8897,1.8827,1.8826,1.8825,1.8825,0,0,1.9027,1.8998,1.9003,1.8995,1.8977,1.8978,1.8986,1.8978,1.8978,1.897,1.8974,1.8974,1.8955,1.895,1.8932,1.8939,1.8972,1.8919,1.8918,1.8928,1.8996,1.9009,1.9015,1.8958,1.8959,1.896,1.8997,0,1.9071,1.9081,1.9058,1.9074,1.9075,1.9043,1.9049,1.9037,1.9023,1.9022,1.9006,1.9005,1.8982,1.8978,1.8984,1.8967,1.8985,1.8964,1.8961,1.8961,1.8963,1.9022,1.9036,1.9071,1.9001,1.9002,1.9002,0,1.9123,1.9116,1.9132,1.911,1.911,1.9116,1.9106,1.9106,1.9092,1.908,1.9074,1.9052,1.9057,1.9032,1.9037,1.9023,1.9021,1.9012,1.9013,1.901,1.8983,1.9019,1.9082,1.9087,1.901,1.9009,1.9008,0,1.9176,1.917,1.9178,1.9173,1.9149,1.9153,1.9144,1.9128,1.9125,1.9117,1.9114,1.9107,1.9102,1.9097,1.9074,1.9058,1.9081,1.9055,1.907,1.9071,1.9075,1.9075,1.9137,1.9077,1.9077,1.9077,1.9076,0,1.9226,1.9236,1.9201,1.9206,1.9216,1.9189,1.92,1.9187,1.9173,1.9174,1.9147,1.9148,1.9118,1.9116,1.9098,1.9103,1.9102,1.9093,1.9087,1.9094,1.9095,1.909,1.9087,1.9078,1.9078,1.9077,1.9077,0,1.9286,1.9263,1.927,1.9246,1.924,1.9248,1.9227,1.923,1.9214,1.9215,1.9214,1.9188,1.9184,1.9161,1.9152,1.9139,1.9151,1.9142,1.9155,1.9151,1.9168,1.9166,1.9228,1.9234,1.9171,1.9172,1.9173,0,1.9318,1.9325,1.9302,1.93,1.9291,1.929,1.9285,1.9259,1.9255,1.9239,1.9244,1.9237,1.9231,1.9226,1.9206,1.9198,1.9187,1.9209,1.9186,1.9192,1.9185,1.9184,1.9184,1.9214,1.9215,1.9216,1.9216,0,1.9377,1.9366,1.9361,1.9352,1.9347,1.9339,1.9329,1.9329,1.9299,1.9297,1.9292,1.9287,1.9277,1.927,1.9259,1.9248,1.9227,1.9224,1.9227,1.9233,1.9239,1.9234,1.9167,1.9222,1.9222,1.9221,1.9221,1.9221,1.9423,1.9427,1.941,1.9405,1.9395,1.9386,1.9386,1.937,1.9365,1.9354,1.9339,1.9336,1.932,1.9303,1.9293,1.929,1.9278,1.9283,1.9283,1.9284,1.9287,1.9241,1.9288,1.9288,1.9288,1.9288,1.9287,0,1.9479,1.9466,1.9462,1.9448,1.9444,1.9424,1.9412,1.9409,1.9407,1.9394,1.9387,1.9381,1.9374,1.9353,1.9344,1.9345,1.9335,1.9344,1.9342,1.934,1.9299,1.9297,1.9352,1.9352,1.9352,1.9352,1.9352,1.9352,1.9507,1.9512,1.9498,1.9496,1.9484,1.948,1.9474,1.9465,1.9454,1.9448,1.9442,1.9428,1.9412,1.9401,1.9393,1.9387,1.9384,1.9396,1.9387,1.9349,1.9343,1.9337,1.9334,1.9396,1.9396,1.9427,1.9427,1.9427]},{"header":{"parameterUnit":"m.s-1","parameterCategory":1,"la1":30.2991,"la2":30.254,"lo1":-89.0895,"lo2":-89.0444,"dy":0.0017,"dx":0.0017,"nx":28,"ny":28,"refTime":"2024-05-27T09:00:00:Z","depth":0,"parameterNumber":3,"parameterNumberName":"V-component_of_WINDS"},"data":[0,0,0,0,0,0,0,0,0,0,0,0,0,0,0,0,0,0,0,0,0,0,0,0,0,0,0,0,0,0,0,0,0,0,0,0,0,0,0,0,0,0,0,0,0,0,0,0,0,0,0,0,0,0,0,0,0,0,6.6272,6.6273,0,6.6381,6.6382,6.6383,6.635,6.6348,6.6346,6.6344,6.6451,6.6456,6.6461,0,0,0,0,0,0,0,0,0,0,0,0,0,6.6032,6.6037,6.6272,6.6273,6.6275,6.638,6.6382,6.6383,6.6351,6.6348,6.6345,6.6343,6.6449,6.6455,6.6461,0,0,0,0,0,0,0,0,0,0,0,0,0,6.6138,6.6038,6.6272,6.6271,6.6272,6.638,6.6382,6.6384,6.6351,6.6348,6.6345,6.6341,6.6447,6.6454,6.6462,6.6575,0,0,6.6484,6.6488,0,0,0,0,0,0,0,0,6.6132,6.6147,6.627,6.6272,6.6273,6.6349,6.6336,6.6448,6.6352,6.6321,6.6344,6.634,6.6419,6.6429,6.6456,6.658,6.6585,6.6485,6.649,6.6493,6.6495,0,0,0,0,0,0,0,6.6125,6.6142,6.6315,6.6272,6.6274,6.6264,6.6276,6.6357,6.6388,6.6324,6.6322,6.6335,6.6419,6.6449,6.6459,6.6586,6.6485,6.6492,6.6496,6.6499,6.6807,6.6811,0,0,0,0,0,0,6.6117,6.6136,6.6311,6.6318,6.6193,6.6271,6.6284,6.6328,6.6387,6.6393,6.6338,6.6333,6.6438,6.645,6.6462,6.6598,6.6493,6.65,6.6504,6.6803,6.6808,6.6812,0,0,0,0,0,0,6.6112,6.6133,6.6307,6.6227,6.6248,6.6279,6.6328,6.6332,6.6361,6.6398,6.6402,6.6363,6.6436,6.6452,6.6547,6.6601,6.6503,6.651,6.6799,6.6805,6.681,6.6871,0,0,0,0,0,0,6.6105,6.6131,6.6176,6.6228,6.6252,6.6392,6.6332,6.6336,6.6375,6.637,6.6423,6.6428,6.6435,6.6536,6.6555,6.661,6.6516,6.6794,6.6802,6.6808,6.6864,6.6878,6.6889,0,0,0,0,0,6.6097,6.6188,6.6178,6.62,6.6309,6.6395,6.6409,6.6416,6.6379,6.6423,6.6447,6.6426,6.6593,6.6547,6.6567,6.6625,6.6791,6.6799,6.6808,6.6858,6.6875,6.6889,0,0,0,0,0,0,6.614,6.6195,6.6185,6.6296,6.6341,6.6389,6.6445,6.6433,6.6489,6.6481,6.6486,6.6499,6.6596,6.662,6.6568,6.6737,6.6686,6.6699,6.6718,6.6734,6.6746,6.6738,6.6522,0,0,0,0,0,6.6163,6.623,6.6273,6.6367,6.639,6.6414,6.6452,6.6453,6.65,6.6518,6.6548,6.6593,6.6655,6.6696,6.6755,6.6868,6.6878,6.6917,6.693,6.694,6.6951,6.7011,6.7029,6.684,6.6839,6.6839,0,0,6.621,6.6248,6.629,6.6376,6.6412,6.6479,6.643,6.6504,6.6553,6.6529,6.6621,6.6645,6.6695,6.6799,6.6846,6.6822,6.7006,6.6951,6.6959,6.6964,6.7021,6.7039,6.7055,6.6845,6.6844,6.6843,0,0,6.633,6.6366,6.6448,6.6484,6.6539,6.6554,6.6574,6.6624,6.6639,6.6732,6.6715,6.6773,6.6881,6.6917,6.6949,6.7083,6.7066,6.7102,6.7168,6.7226,6.7241,6.7255,6.7301,6.7318,6.7113,6.7113,6.7113,0,6.6381,6.6483,6.6491,6.6566,6.6604,6.6587,6.6668,6.6703,6.6773,6.6799,6.6771,6.6906,6.6938,6.705,6.7083,6.711,6.7131,6.7096,6.7239,6.7252,6.7265,6.7309,6.7327,6.7117,6.7117,6.7116,6.7116,0,6.6543,6.6614,6.6673,6.6743,6.6788,6.6866,6.6883,6.6928,6.6925,6.6943,6.7037,6.7076,6.7142,6.7169,6.7167,6.728,6.7263,6.7237,6.7186,6.7286,6.7328,6.7345,6.7123,6.7121,6.712,6.7119,0,0,6.6692,6.6766,6.6787,6.6818,6.6877,6.6931,6.7008,6.7074,6.7112,6.7161,6.7224,6.7315,6.7292,6.7329,6.733,6.7382,6.7484,6.7349,6.735,6.7372,6.761,6.7628,6.7648,6.7474,6.7477,6.748,6.7605,0,6.6816,6.6953,6.6961,6.7084,6.7149,6.7133,6.72,6.7242,6.7261,6.7317,6.7337,6.7402,6.7366,6.7388,6.7438,6.7461,6.7532,6.7452,6.7531,6.7534,6.7518,6.767,6.769,6.7807,6.7622,6.7625,6.7627,0,6.6979,6.7035,6.7164,6.7213,6.7241,6.7301,6.7361,6.7417,6.7464,6.7474,6.7515,6.751,6.7587,6.7534,6.7639,6.7585,6.7618,6.7634,6.7639,6.7645,6.7585,6.768,6.7845,6.7862,6.7653,6.7651,6.7649,0,6.7074,6.7181,6.7272,6.7299,6.7359,6.7401,6.7428,6.7472,6.7511,6.7564,6.7589,6.765,6.7683,6.773,6.7741,6.7701,6.7846,6.7794,6.7855,6.7854,6.7885,6.7882,6.8056,6.7908,6.7908,6.7907,6.7907,0,6.7211,6.729,6.7315,6.7371,6.7459,6.7468,6.7554,6.7578,6.7617,6.7676,6.7667,6.7722,6.7733,6.7791,6.78,6.7885,6.79,6.7909,6.791,6.7909,6.7908,6.793,6.7922,6.7912,6.7911,6.791,6.7909,0,6.7331,6.7351,6.7449,6.7498,6.7512,6.7575,6.7616,6.7669,6.7686,6.7761,6.7779,6.7806,6.7873,6.7889,6.7968,6.7974,6.8075,6.8069,6.8059,6.8059,6.8118,6.8112,6.8311,6.8337,6.8173,6.8174,6.8176,0,6.7416,6.7477,6.7533,6.7572,6.7601,6.7665,6.7705,6.7716,6.7758,6.7816,6.7862,6.7928,6.7981,6.8089,6.8115,6.8175,6.817,6.8235,6.8179,6.8176,6.8169,6.8165,6.8171,6.8246,6.8248,6.8249,6.825,0,6.7565,6.7572,6.7631,6.7694,6.7742,6.7791,6.7838,6.7871,6.7888,6.7935,6.8004,6.8046,6.8127,6.8193,6.8254,6.8279,6.8268,6.8268,6.8285,6.8284,6.8276,6.828,6.8088,6.8263,6.8262,6.8261,6.826,6.826,6.767,6.7723,6.777,6.7836,6.7873,6.7917,6.7969,6.7994,6.8052,6.812,6.8122,6.8197,6.8242,6.8323,6.8353,6.841,6.839,6.8415,6.8421,6.8427,6.8432,6.8268,6.8422,6.8421,6.8421,6.8421,6.842,0,6.7817,6.7847,6.7908,6.7974,6.8026,6.8012,6.8063,6.8106,6.8173,6.8216,6.8269,6.8348,6.8412,6.8443,6.8505,6.8545,6.8541,6.8561,6.8558,6.8564,6.8447,6.8425,6.8563,6.8563,6.8563,6.8563,6.8563,6.8563,6.79,6.7989,6.8001,6.8108,6.8137,6.8211,6.8241,6.8282,6.8316,6.8405,6.8458,6.8479,6.8517,6.8582,6.8639,6.8647,6.867,6.8692,6.8697,6.8587,6.8572,6.8558,6.8538,6.8697,6.8698,6.8809,6.881,6.8811]}]]